When you browse on this site, cookies collect data to enhance your experience and personalize the content and advertising you see.
Visit our Privacy Policy to learn more. By continuing to use the site, you agree to this use of cookies and data.
  • In Österreich
  • Länderverzeichnis
  • Für 7 Tage
  • Wassertemperatur
  • Wetterkarte
  • News
  • Widgets
  • user-avatar
    Anmelden

    Stündliche Wetter Aschtarak

    Heute, 28 Januar, Dienstag

    Zeit Temperatur Niederschläge Wind Luftdruck Luftfeuchtigkeit
    00:00 -4°C° 0 mm 1 m/S 660 mmHg 47%
    01:00 -4°C° 0 mm 1 m/S 659 mmHg 47%
    02:00 -4°C° 0 mm 1 m/S 659 mmHg 48%
    03:00 -4°C° 0 mm 1 m/S 659 mmHg 50%
    04:00 -4°C° 0 mm 1 m/S 659 mmHg 51%
    05:00 -4°C° 0 mm 1 m/S 658 mmHg 52%
    06:00 -6°C° 0 mm 1 m/S 658 mmHg 53%
    07:00 -3°C° 0 mm 1 m/S 658 mmHg 52%
    08:00 -2°C° 0 mm 1 m/S 659 mmHg 52%
    09:00 -1°C° 0 mm 1 m/S 659 mmHg 51%
    10:00 0°C° 0 mm 1 m/S 659 mmHg 50%
    11:00 +1°C° 0 mm 1 m/S 659 mmHg 49%
    12:00 +2°C° 0 mm 1 m/S 658 mmHg 48%
    13:00 +2°C° 0 mm 1 m/S 658 mmHg 48%
    14:00 +1°C° 0 mm 0 m/S 657 mmHg 49%
    15:00 +1°C° 0 mm 0 m/S 657 mmHg 50%
    16:00 +1°C° 0 mm 1 m/S 657 mmHg 50%
    17:00 0°C° 0 mm 1 m/S 656 mmHg 51%
    18:00 -1°C° 0 mm 1 m/S 656 mmHg 51%
    19:00 -1°C° 0 mm 1 m/S 656 mmHg 52%
    20:00 -2°C° 0 mm 1 m/S 656 mmHg 52%
    21:00 -2°C° 0 mm 1 m/S 656 mmHg 53%
    22:00 -2°C° 0 mm 1 m/S 656 mmHg 53%
    23:00 -2°C° 0 mm 1 m/S 656 mmHg 53%

    Morgen, 29 Januar, Mittwoch

    Zeit Temperatur Niederschläge Wind Luftdruck Luftfeuchtigkeit
    00:00 -2°C° 0 mm 1 m/S 656 mmHg 53%
    01:00 -2°C° 0 mm 1 m/S 656 mmHg 55%
    02:00 -2°C° 0 mm 1 m/S 656 mmHg 57%
    03:00 -2°C° 0 mm 1 m/S 655 mmHg 58%
    04:00 -3°C° 0 mm 1 m/S 655 mmHg 58%
    05:00 -3°C° 0 mm 1 m/S 655 mmHg 58%
    06:00 -4°C° 0 mm 1 m/S 654 mmHg 57%
    07:00 -3°C° 0 mm 1 m/S 655 mmHg 56%
    08:00 -2°C° 0 mm 1 m/S 655 mmHg 55%
    09:00 -1°C° 0 mm 1 m/S 655 mmHg 54%
    10:00 0°C° 0 mm 1 m/S 655 mmHg 53%
    11:00 +1°C° 0 mm 1 m/S 655 mmHg 53%
    12:00 +2°C° 0 mm 1 m/S 655 mmHg 53%
    13:00 +2°C° 0 mm 1 m/S 654 mmHg 53%
    14:00 +2°C° 0 mm 1 m/S 654 mmHg 54%
    15:00 +3°C° 0 mm 1 m/S 654 mmHg 55%
    16:00 +1°C° 0 mm 1 m/S 654 mmHg 57%
    17:00 0°C° 0 mm 1 m/S 654 mmHg 59%
    18:00 -1°C° 0 mm 1 m/S 654 mmHg 60%
    19:00 -1°C° 0 mm 1 m/S 654 mmHg 61%
    20:00 -2°C° 0 mm 1 m/S 654 mmHg 61%
    21:00 -2°C° 0 mm 1 m/S 655 mmHg 62%
    22:00 -2°C° 0 mm 1 m/S 655 mmHg 63%
    23:00 -3°C° 0 mm 1 m/S 655 mmHg 64%

    übermorgen, 30 Januar, Donnerstag

    Zeit Temperatur Niederschläge Wind Luftdruck Luftfeuchtigkeit
    00:00 -3°C° 0 mm 1 m/S 655 mmHg 65%
    01:00 -3°C° 0 mm 1 m/S 655 mmHg 66%
    02:00 -3°C° 0 mm 1 m/S 655 mmHg 67%
    03:00 -4°C° 0 mm 1 m/S 655 mmHg 68%
    04:00 -4°C° 0 mm 1 m/S 655 mmHg 70%
    05:00 -4°C° 0 mm 1 m/S 655 mmHg 71%
    06:00 -4°C° 0 mm 1 m/S 655 mmHg 72%
    07:00 -3°C° 0 mm 1 m/S 656 mmHg 69%
    08:00 -2°C° 0 mm 1 m/S 656 mmHg 66%
    09:00 -1°C° 0 mm 1 m/S 657 mmHg 64%
    10:00 0°C° 0 mm 1 m/S 657 mmHg 63%
    11:00 +1°C° 0 mm 1 m/S 656 mmHg 62%
    12:00 +2°C° 0 mm 1 m/S 656 mmHg 61%
    13:00 +2°C° 0 mm 1 m/S 655 mmHg 61%
    14:00 +2°C° 0 mm 1 m/S 655 mmHg 61%
    15:00 +2°C° 0 mm 1 m/S 655 mmHg 61%
    16:00 +2°C° 0 mm 1 m/S 655 mmHg 62%
    17:00 -1°C° 0 mm 2 m/S 655 mmHg 64%
    18:00 -2°C° 0 mm 2 m/S 654 mmHg 66%
    19:00 -2°C° 0 mm 2 m/S 654 mmHg 66%
    20:00 -2°C° 0 mm 2 m/S 654 mmHg 67%
    21:00 -2°C° 0 mm 2 m/S 654 mmHg 67%
    22:00 -2°C° 0 mm 2 m/S 654 mmHg 68%
    23:00 -3°C° 0 mm 2 m/S 654 mmHg 69%

    31 Januar, Freitag

    Zeit Temperatur Niederschläge Wind Luftdruck Luftfeuchtigkeit
    00:00 -3°C° 0 mm 2 m/S 653 mmHg 69%
    01:00 -3°C° 0 mm 2 m/S 653 mmHg 70%
    02:00 -3°C° 0 mm 2 m/S 652 mmHg 71%
    03:00 -3°C° 0 mm 2 m/S 652 mmHg 71%
    04:00 -3°C° 0 mm 2 m/S 652 mmHg 72%
    05:00 -3°C° 0 mm 2 m/S 651 mmHg 74%
    06:00 -3°C° 0 mm 2 m/S 651 mmHg 75%
    07:00 -2°C° 0 mm 2 m/S 651 mmHg 74%
    08:00 -2°C° 0 mm 2 m/S 651 mmHg 72%
    09:00 -1°C° 0 mm 2 m/S 651 mmHg 71%
    10:00 +1°C° 0 mm 2 m/S 651 mmHg 69%
    11:00 +1°C° 0 mm 3 m/S 650 mmHg 68%
    12:00 +1°C° 0 mm 3 m/S 650 mmHg 66%
    13:00 +2°C° 0.1 mm 3 m/S 649 mmHg 66%
    14:00 +2°C° 0.1 mm 3 m/S 649 mmHg 66%
    15:00 +2°C° 0.1 mm 3 m/S 649 mmHg 67%
    16:00 +1°C° 0.2 mm 3 m/S 649 mmHg 73%
    17:00 0°C° 0.2 mm 3 m/S 649 mmHg 80%
    18:00 -1°C° 0.2 mm 2 m/S 649 mmHg 87%
    19:00 -1°C° 0.5 mm 2 m/S 649 mmHg 88%
    20:00 -1°C° 0.5 mm 2 m/S 649 mmHg 88%
    21:00 +1°C° 0.5 mm 2 m/S 649 mmHg 89%
    22:00 -1°C° 1.3 mm 2 m/S 649 mmHg 91%
    23:00 -1°C° 1.3 mm 2 m/S 649 mmHg 93%

    1 Februar, Samstag

    Zeit Temperatur Niederschläge Wind Luftdruck Luftfeuchtigkeit
    00:00 -2°C° 1.3 mm 2 m/S 648 mmHg 96%
    01:00 -2°C° 1.2 mm 2 m/S 648 mmHg 94%
    02:00 -2°C° 1.2 mm 2 m/S 648 mmHg 93%
    03:00 -4°C° 1.2 mm 3 m/S 649 mmHg 92%
    04:00 -4°C° 0.5 mm 3 m/S 649 mmHg 92%
    05:00 -3°C° 0.5 mm 2 m/S 649 mmHg 92%
    06:00 -4°C° 0.5 mm 2 m/S 649 mmHg 93%
    07:00 -4°C° 0.2 mm 2 m/S 649 mmHg 91%
    08:00 -4°C° 0.2 mm 2 m/S 650 mmHg 89%
    09:00 -3°C° 0.2 mm 2 m/S 651 mmHg 88%
    10:00 -3°C° 0.1 mm 2 m/S 651 mmHg 87%
    11:00 -1°C° 0.1 mm 1 m/S 651 mmHg 86%
    12:00 0°C° 0.1 mm 1 m/S 651 mmHg 85%
    13:00 0°C° 0.1 mm 1 m/S 651 mmHg 84%
    14:00 0°C° 0.1 mm 1 m/S 651 mmHg 83%
    15:00 0°C° 0.1 mm 1 m/S 651 mmHg 82%
    16:00 -1°C° 0 mm 1 m/S 652 mmHg 82%
    17:00 -2°C° 0 mm 1 m/S 652 mmHg 82%
    18:00 -3°C° 0 mm 1 m/S 653 mmHg 82%
    19:00 -4°C° 0 mm 1 m/S 653 mmHg 78%
    20:00 -4°C° 0 mm 1 m/S 654 mmHg 74%
    21:00 -7°C° 0 mm 2 m/S 654 mmHg 71%
    22:00 -7°C° 0 mm 2 m/S 655 mmHg 68%
    23:00 -7°C° 0 mm 1 m/S 655 mmHg 66%

    2 Februar, Sonntag

    Zeit Temperatur Niederschläge Wind Luftdruck Luftfeuchtigkeit
    00:00 -7°C° 0 mm 1 m/S 655 mmHg 64%
    01:00 -7°C° 0 mm 1 m/S 655 mmHg 65%
    02:00 -7°C° 0 mm 1 m/S 655 mmHg 65%
    03:00 -7°C° 0 mm 1 m/S 656 mmHg 65%
    04:00 -8°C° 0 mm 1 m/S 656 mmHg 67%
    05:00 -8°C° 0 mm 1 m/S 656 mmHg 68%
    06:00 -8°C° 0 mm 1 m/S 656 mmHg 69%
    07:00 -7°C° 0 mm 1 m/S 657 mmHg 69%
    08:00 -6°C° 0 mm 1 m/S 657 mmHg 68%
    09:00 -6°C° 0 mm 1 m/S 658 mmHg 68%
    10:00 -4°C° 0 mm 1 m/S 657 mmHg 67%
    11:00 -3°C° 0 mm 1 m/S 657 mmHg 65%
    12:00 -2°C° 0 mm 1 m/S 657 mmHg 64%
    13:00 -2°C° 0 mm 1 m/S 657 mmHg 64%
    14:00 -2°C° 0 mm 1 m/S 657 mmHg 64%
    15:00 -1°C° 0 mm 1 m/S 657 mmHg 65%
    16:00 -2°C° 0 mm 1 m/S 657 mmHg 66%
    17:00 -3°C° 0 mm 1 m/S 657 mmHg 67%
    18:00 -6°C° 0 mm 1 m/S 657 mmHg 68%
    19:00 -6°C° 0 mm 1 m/S 657 mmHg 66%
    20:00 -6°C° 0 mm 1 m/S 658 mmHg 64%
    21:00 -6°C° 0 mm 1 m/S 658 mmHg 62%
    22:00 -7°C° 0 mm 1 m/S 658 mmHg 62%
    23:00 -7°C° 0 mm 1 m/S 658 mmHg 63%
    Mehr zeigen